Location: Calvatone
(45.1167°N, 10.4333°E)
Time: 09:31:09
(UTC+00:00)

METEOR M2 - Pass Details

Date: 11 December 2023
Orbit: 818 x 826 km, 98.4° (Epoch: 24 February)

Event Time Altitude Azimuth Distance (km) Brightness Sun altitude
Rises 17:43:55 0° 214° (SW) 3,353 ? -21.6°
Reaches altitude 10° 17:47:22 10° 238° (WSW) 2,426 ? -22.2°
Maximum altitude 17:50:20 15° 272° (W) 2,100 ? -22.7°
Drops below altitude 10° 17:53:20 10° 306° (NW) 2,434 ? -23.3°
Sets 17:56:49 0° 329° (NNW) 3,372 ? -23.9°
